Flight Track Log - Related Links

Times and Time Zones

All times are in EDT time to prevent confusion due to time zone crossing. See the FAO895 flight status page for this flight to view local times or setup timezone preferences in your user account.

Time Position Orientation Groundspeed Altitude Reporting Facility
EDT Latitude Longitude Course Direction KTS MPH feet Rate Location/Type
Sat 14:33:57 43.1167 -78.9333 90° East 167 192 1,300  Level Buffalo TRACON
Sat 14:34:09 43.1167 -78.9167 90° East 163 188 1,900 2,000 Climbing Buffalo TRACON
Sat 14:35:09 43.0833 -78.8500 124° Southeast 227 261 3,700 2,300 Climbing Buffalo TRACON
Sat 14:36:09 43.0167 -78.8500 180° South 294 338 6,500 2,377 Climbing Buffalo TRACON
Sat 14:38:41 42.8319 -78.9136 194° South 286 329 12,100 2,310 Climbing Cleveland Center
Sat 14:39:42 42.7478 -78.9400 193° South 304 350 14,700 2,557 Climbing Cleveland Center
Sat 14:40:43 42.6458 -78.9739 194° South 313 360 17,300 2,293 Climbing Cleveland Center
Sat 14:41:45 42.5553 -79.0033 193° South 334 384 19,400 1,707 Climbing Cleveland Center
Sat 14:42:46 42.4639 -79.0333 194° South 337 388 20,800 1,415 Climbing Cleveland Center
Sat 14:43:48 42.3647 -79.0656 194° South 345 397 22,300 1,610 Climbing Cleveland Center
Sat 14:44:49 42.2697 -79.0953 193° South 349 402 24,100 1,268 Climbing Cleveland Center
Sat 14:45:51 42.1769 -79.1328 197° South 351 404 24,900 829 Climbing Cleveland Center
Sat 14:46:52 42.0894 -79.2036 211° Southwest 367 422 25,800 1,268 Climbing Cleveland Center
Sat 14:47:54 42.0017 -79.2744 211° Southwest 369 425 27,500 1,610 Climbing Cleveland Center
Sat 14:48:55 41.8978 -79.3581 211° Southwest 367 422 29,100 1,268 Climbing Cleveland Center
Sat 14:49:57 41.8106 -79.4292 211° Southwest 368 423 30,100 1,073 Climbing Cleveland Center
Sat 14:50:58 41.7233 -79.4981 211° Southwest 367 422 31,300 927 Climbing Cleveland Center
Sat 14:52:00 41.6381 -79.5692 212° Southwest 365 420 32,000 341 Climbing Cleveland Center
Sat 14:53:01 41.5522 -79.6375 211° Southwest 364 419 32,000  Level Cleveland Center
Sat 14:54:03 41.4664 -79.7061 211° Southwest 364 419 32,000  Level Cleveland Center
Sat 14:55:05 41.3639 -79.7864 210° Southwest 362 417 32,000  Level Cleveland Center
Sat 14:56:06 41.2781 -79.8556 211° Southwest 362 417 32,000  Level Cleveland Center
Sat 14:57:08 41.1933 -79.9214 210° Southwest 361 415 32,000  Level Cleveland Center
Sat 14:58:09 41.1178 -79.9817 211° Southwest 360 414 32,000  Level Cleveland Center
Sat 14:59:11 41.0106 -80.0664 211° Southwest 369 425 32,000  Level Cleveland Center
Sat 15:00:13 40.9222 -80.1350 210° Southwest 369 425 32,000  Level Cleveland Center
Sat 15:01:14 40.8250 -80.2067 209° Southwest 370 426 32,000  Level Cleveland Center
Sat 15:02:16 40.7247 -80.2419 195° South 372 428 32,000  Level Cleveland Center
Sat 15:03:18 40.6256 -80.2731 193° South 372 428 32,000  Level Cleveland Center
Sat 15:04:19 40.5269 -80.3039 193° South 370 426 32,000  Level Cleveland Center
Sat 15:05:21 40.4283 -80.3344 193° South 368 423 32,000  Level Cleveland Center
Sat 15:06:23 40.3242 -80.3675 194° South 363 418 32,000  Level Cleveland Center
Sat 15:07:25 40.2278 -80.3975 193° South 362 417 32,000  Level Cleveland Center
Sat 15:08:26 40.1306 -80.4275 193° South 361 415 32,000  Level Cleveland Center
Sat 15:09:28 40.0331 -80.4569 193° South 361 415 32,000  Level Cleveland Center
Sat 15:10:30 39.9175 -80.4925 193° South 360 414 32,000  Level Cleveland Center
Sat 15:11:31 39.8206 -80.5214 193° South 360 414 32,000  Level Cleveland Center
Sat 15:12:33 39.7231 -80.5503 193° South 359 413 32,000  Level Cleveland Center
Sat 15:13:35 39.6256 -80.5811 194° South 360 414 32,000  Level Cleveland Center
Sat 15:14:39 39.5150 -80.6158 194° South 360 414 32,000  Level Indianapolis Center
Sat 15:15:41 39.4158 -80.6439 192° South 360 414 32,000  Level Indianapolis Center
Sat 15:16:42 39.3169 -80.6747 194° South 361 415 32,000  Level Indianapolis Center
Sat 15:17:44 39.2175 -80.7036 193° South 362 417 32,000  Level Indianapolis Center
Sat 15:18:46 39.1172 -80.7336 193° South 364 419 32,000 195 Level Indianapolis Center
Sat 15:19:47 39.0172 -80.7642 193° South 366 421 32,400 439 Climbing Indianapolis Center
Sat 15:20:49 38.9175 -80.7925 192° South 366 421 32,900 290 Climbing Indianapolis Center
Sat 15:21:51 38.7994 -80.8272 193° South 364 419 33,000 49 Climbing Indianapolis Center
Sat 15:22:52 38.7014 -80.8567 193° South 362 417 33,000  Level Indianapolis Center
Sat 15:23:54 38.6036 -80.8856 193° South 362 417 33,000  Level Indianapolis Center
Sat 15:24:55 38.5039 -80.9136 192° South 362 417 33,000  Level Indianapolis Center
Sat 15:25:57 38.4044 -80.9433 193° South 362 417 33,000  Level Indianapolis Center
Sat 15:26:59 38.3050 -80.9728 193° South 362 417 33,000  Level Indianapolis Center
Sat 15:28:00 38.2022 -81.0019 193° South 369 425 33,000  Level Indianapolis Center
Sat 15:29:02 38.1008 -81.0328 193° South 370 426 33,000  Level Indianapolis Center
Sat 15:30:04 37.9992 -81.0608 192° South 371 427 33,000  Level Indianapolis Center
Sat 15:31:05 37.8967 -81.0911 193° South 371 427 33,000  Level Indianapolis Center
Sat 15:32:07 37.7725 -81.1217 191° South 382 440 33,000  Level Indianapolis Center
Sat 15:33:08 37.6686 -81.1206 180° South 383 441 33,000  Level Indianapolis Center
Sat 15:34:10 37.5653 -81.1197 180° South 383 441 33,000  Level Indianapolis Center
Sat 15:35:12 37.4417 -81.1178 179° South 383 441 33,000  Level Indianapolis Center
Sat 15:36:13 37.3361 -81.1156 179° South 383 441 33,000  Level Indianapolis Center
Sat 15:37:15 37.2317 -81.1139 179° South 383 441 33,000  Level Indianapolis Center
Sat 15:38:17 37.1289 -81.1111 179° South 384 442 33,000  Level Indianapolis Center
Sat 15:39:18 37.0050 -81.1106 180° South 380 437 33,000  Level Indianapolis Center
Sat 15:40:20 36.9008 -81.1081 179° South 381 438 33,000  Level Indianapolis Center
Sat 15:41:21 36.7975 -81.1058 179° South 381 438 33,000  Level Indianapolis Center
Sat 15:42:27 36.6800 -81.1033 179° South 374 430 33,000  Level Atlanta Center
Sat 15:43:27 36.5758 -81.1022 180° South 374 430 33,000  Level Atlanta Center
Sat 15:44:27 36.4694 -81.1008 179° South 374 430 33,000  Level Atlanta Center
Sat 15:45:27 36.3631 -81.0969 178° South 379 436 33,000  Level Atlanta Center
Sat 15:46:27 36.2586 -81.0956 179° South 385 443 33,000  Level Atlanta Center
Sat 15:47:27 36.1544 -81.0944 180° South 385 443 33,000  Level Atlanta Center
Sat 15:48:27 36.0481 -81.0931 179° South 385 443 33,000  Level Atlanta Center
Sat 15:49:27 35.9436 -81.0917 179° South 385 443 33,000  Level Atlanta Center
Sat 15:50:27 35.8372 -81.0906 180° South 385 443 33,000 -200 Level Atlanta Center
Sat 15:51:27 35.7225 -81.0869 179° South 385 443 32,600 -450 Descending Atlanta Center
Sat 15:52:27 35.6181 -81.0831 178° South 385 443 32,100 -300 Descending Atlanta Center
Sat 15:53:27 35.5136 -81.0817 179° South 385 443 32,000 -50 Descending Atlanta Center
Sat 15:54:27 35.4094 -81.0828 180° South 385 443 32,000  Level Atlanta Center
Sat 15:55:27 35.3072 -81.0814 179° South 380 437 32,000  Level Atlanta Center
Sat 15:56:59 35.1606 -81.0822 180° South 378 435 32,000  Level Jacksonville Center
Sat 15:57:59 35.0583 -81.0769 178° South 378 435 32,000  Level Jacksonville Center
Sat 15:58:59 34.9561 -81.0739 179° South 378 435 32,000  Level Jacksonville Center
Sat 15:59:59 34.8519 -81.0761 181° South 378 435 32,000  Level Jacksonville Center
Sat 16:00:59 34.7561 -81.1011 192° South 373 429 32,000  Level Jacksonville Center
Sat 16:01:59 34.6628 -81.1358 197° South 362 417 32,000  Level Jacksonville Center
Sat 16:02:59 34.5675 -81.1706 197° South 356 410 32,000  Level Jacksonville Center
Sat 16:03:59 34.4719 -81.2075 198° South 356 410 32,000  Level Jacksonville Center
Sat 16:04:59 34.3786 -81.2397 196° South 361 415 32,000  Level Jacksonville Center
Sat 16:05:59 34.2831 -81.2742 197° South 361 415 32,000  Level Jacksonville Center
Sat 16:06:59 34.1853 -81.3086 196° South 361 415 32,000  Level Jacksonville Center
Sat 16:07:59 34.0856 -81.3406 195° South 361 415 32,000  Level Jacksonville Center
Sat 16:08:59 33.9922 -81.3747 197° South 361 415 32,000  Level Jacksonville Center
Sat 16:09:59 33.8944 -81.4114 197° South 361 415 32,000  Level Jacksonville Center
Sat 16:10:59 33.7967 -81.4431 195° South 361 415 32,000  Level Jacksonville Center
Sat 16:11:59 33.6969 -81.4772 196° South 361 415 32,000  Level Jacksonville Center
Sat 16:12:59 33.5972 -81.5011 191° South 366 421 32,000  Level Jacksonville Center
Sat 16:13:59 33.4931 -81.5253 191° South 372 428 32,000  Level Jacksonville Center
Sat 16:14:59 33.3911 -81.5492 191° South 372 428 32,000  Level Jacksonville Center
Sat 16:15:59 33.2889 -81.5706 190° South 372 428 32,000  Level Jacksonville Center
Sat 16:16:59 33.1850 -81.5969 192° South 372 428 32,000  Level Jacksonville Center
Sat 16:17:59 33.0808 -81.6208 191° South 377 434 32,000  Level Jacksonville Center
Sat 16:18:59 32.9744 -81.6447 191° South 382 440 32,000  Level Jacksonville Center
Sat 16:19:59 32.8703 -81.6658 190° South 387 445 32,000  Level Jacksonville Center
Sat 16:20:59 32.7642 -81.6869 189° South 392 451 32,000  Level Jacksonville Center
Sat 16:21:59 32.6600 -81.7131 192° South 392 451 32,000  Level Jacksonville Center
Sat 16:22:59 32.5453 -81.7392 191° South 392 451 32,000  Level Jacksonville Center
Sat 16:23:59 32.4369 -81.7603 189° South 392 451 32,000  Level Jacksonville Center
Sat 16:24:59 32.3433 -81.7836 192° South 392 451 32,000  Level Jacksonville Center
Sat 16:25:59 32.2225 -81.8072 189° South 392 451 32,000  Level Jacksonville Center
Sat 16:26:59 32.1286 -81.8278 191° South 392 451 32,000  Level Jacksonville Center
Sat 16:27:59 32.0100 -81.8561 191° South 392 451 32,000  Level Jacksonville Center
Sat 16:28:59 31.9014 -81.8769 189° South 392 451 32,000  Level Jacksonville Center
Sat 16:29:59 31.8036 -81.8975 190° South 392 451 32,000  Level Jacksonville Center
Sat 16:30:59 31.6847 -81.9233 190° South 392 451 32,000  Level Jacksonville Center
Sat 16:31:59 31.5742 -81.9489 191° South 392 451 32,000  Level Jacksonville Center
Sat 16:32:59 31.4742 -81.9694 190° South 397 457 32,000  Level Jacksonville Center
Sat 16:33:59 31.3469 -81.9950 190° South 414 476 32,000  Level Jacksonville Center
Sat 16:34:59 31.2344 -82.0203 191° South 419 482 32,000  Level Jacksonville Center
Sat 16:35:59 31.1219 -82.0408 189° South 419 482 32,000  Level Jacksonville Center
Sat 16:36:59 31.0050 -82.0686 192° South 419 482 32,000  Level Jacksonville Center
Sat 16:37:59 30.8944 -82.0911 190° South 419 482 32,000  Level Jacksonville Center
Sat 16:38:59 30.7797 -82.1139 190° South 419 482 32,000  Level Jacksonville Center
Sat 16:39:59 30.6672 -82.1392 191° South 419 482 32,000  Level Jacksonville Center
Sat 16:40:59 30.5525 -82.1592 189° South 419 482 32,000  Level Jacksonville Center
Sat 16:41:59 30.4358 -82.1842 190° South 430 495 32,000  Level Jacksonville Center
Sat 16:42:59 30.3189 -82.2044 189° South 425 489 32,000  Level Jacksonville Center
Sat 16:43:59 30.2042 -82.2292 191° South 424 488 32,000  Level Jacksonville Center
Sat 16:44:59 30.0917 -82.2539 191° South 418 481 32,000 -350 Level Jacksonville Center
Sat 16:45:59 29.9853 -82.2786 191° South 418 481 31,300 -1,200 Descending Jacksonville Center
Sat 16:46:59 29.8706 -82.3033 191° South 423 487 29,600 -1,850 Descending Jacksonville Center
Sat 16:47:59 29.7558 -82.3281 191° South 423 487 27,600 -1,350 Descending Jacksonville Center
Sat 16:48:59 29.6433 -82.3478 189° South 423 487 26,900 -300 Descending Jacksonville Center
Sat 16:49:59 29.5408 -82.3483 180° South 402 463 27,000 50 Climbing Jacksonville Center
Sat 16:50:59 29.4428 -82.3275 170° South 369 425 27,000  Level Jacksonville Center
Sat 16:51:59 29.3444 -82.3064 169° South 364 419 27,000  Level Jacksonville Center
Sat 16:52:59 29.2442 -82.2881 171° South 364 419 27,000  Level Jacksonville Center
Sat 16:53:59 29.1481 -82.2672 169° South 364 419 27,000 -700 Level Jacksonville Center
Sat 16:54:59 29.0478 -82.2656 179° South 364 419 25,600 -2,150 Descending Jacksonville Center
Sat 16:55:59 28.9436 -82.2661 180° South 354 407 22,700 -2,750 Descending Jacksonville Center
Sat 16:56:59 28.8517 -82.2597 177° South 344 396 20,100 -2,530 Descending Jacksonville Center
Sat 16:59:04 28.6500 -82.2667 182° South 344 396 14,900 -2,432 Descending Tampa TRACON
Sat 17:00:04 28.5500 -82.2500 172° South 333 383 12,600 -2,100 Descending Tampa TRACON
Sat 17:01:04 28.4833 -82.2833 204° Southwest 290 334 10,700 -1,368 Descending Tampa TRACON
Sat 17:01:58 28.4500 -82.3500 240° Southwest 244 281 10,000 -368 Descending Tampa TRACON
Sat 17:02:58 28.4333 -82.4167 254° West 250 288 10,000  Level Tampa TRACON
Sat 17:03:58 28.4167 -82.5000 257° West 248 285 10,000 -545 Level Tampa TRACON
Sat 17:04:59 28.3833 -82.5667 240° Southwest 242 278 8,900 -1,276 Descending Tampa TRACON
Sat 17:06:05 28.3667 -82.6333 254° West 223 257 7,300 -1,450 Descending Tampa TRACON
Sat 17:06:59 28.3500 -82.7000 254° West 221 254 6,000 -889 Descending Tampa TRACON
Sat 17:07:53 28.3000 -82.7333 210° Southwest 238 274 5,700 -800 Descending Tampa TRACON
Sat 17:08:59 28.2333 -82.7500 192° South 230 265 4,400 -1,238 Descending Tampa TRACON
Sat 17:09:59 28.1667 -82.7333 168° South 217 250 3,100 -900 Descending Tampa TRACON
Sat 17:10:59 28.1167 -82.7167 164° South 205 236 2,600 -300 Descending Tampa TRACON
Sat 17:11:59 28.0500 -82.7167 180° South 216 249 2,500 -591 Descending Tampa TRACON
Sat 17:13:11 27.9833 -82.7000 168° South 175 201 1,300 -864 Descending Tampa TRACON
Sat 17:14:11 27.9500 -82.7000 180° South 118 136 600 -700 Descending Tampa TRACON
Sat 17:16:00 27.9100 -82.6875 North  Level Estimated
Sat 17:23:00 27.9100 -82.6875 North  Level Estimated
Sat 17:24:00 27.9100 -82.6875 North  Level Estimated

Login

Don't have an account? Register now (free) for customized features, flight alerts, and more!